Regional Weather Roundup
Issued by NWS

Home | Current Version | Previous Version | Graphics & Text | Print | Product List | Glossary On
Versions: 1 2 3 4 5 6 7 8 9 10 11 12 13 14 15 16 17 18 19 20 21 22 23 24 25 26 27 28 29 30 31 32 33 34 35 36 37 38 39 40 41 42 43 44 45 46 47 48 49 50
000
ASUS43 KBIS 290602
RWRND

NORTH DAKOTA REGIONAL WEATHER ROUNDUP
NATIONAL WEATHER SERVICE BISMARCK ND
100 AM CDT WED JUL 29 2015

NOTE: "FAIR" INDICATES FEW OR NO CLOUDS BELOW 12,000 FEET WITH NO
SIGNIFICANT WEATHER AND/OR OBSTRUCTIONS TO VISIBILITY.


NDZ001>003-009>011-017-290700-
NORTHWEST NORTH DAKOTA

CITY           SKY/WX    TMP DP  RH WIND       PRES   REMARKS
WILLISTON      CLOUDY    60  52  74 W20G26    29.89F
6HR MIN TEMP:  56; 6HR MAX TEMP:  60; 6HR PCP:  0.09;

MINOT          LGT RAIN  62  50  64 W30G41    29.72R
$$

NDZ018>021-031>035-040>046-290700-
SOUTHWEST NORTH DAKOTA

CITY           SKY/WX    TMP DP  RH WIND       PRES   REMARKS
BISMARCK       PTCLDY    60  50  69 W23G31    29.89S
6HR MIN TEMP:  60; 6HR MAX TEMP:  69;

DICKINSON      CLEAR     60  45  57 W17       29.96S
GARRISON         N/A     59  51  75 W22G28    29.81S
6HR MIN TEMP:  55; 6HR MAX TEMP:  63;

HETTINGER ARPT CLEAR     53  43  68 NW9       30.05R
$$

NDZ004>008-012>016-024-026-027-054-290700-
NORTHEAST NORTH DAKOTA

CITY           SKY/WX    TMP DP  RH WIND       PRES   REMARKS
GRAND FORKS    CLOUDY    64  54  69 W28G35    29.55F
DEVILS LAKE    CLOUDY    63  50  63 W37G46    29.57R
$$

NDZ022-023-025-028>030-036>039-047>053-290700-
SOUTHEAST NORTH DAKOTA

CITY           SKY/WX    TMP DP  RH WIND       PRES   REMARKS
FARGO          MOCLDY    67  49  52 SW28G37   29.73R
6HR MIN TEMP:  67; 6HR MAX TEMP:  77;

JAMESTOWN      CLOUDY    63  48  58 W31G44    29.75S
$$



USA.gov is the U.S. government's official web portal to all federal, state and local government web resources and services.